When you browse on this site, cookies collect data to enhance your experience and personalize the content and advertising you see.
Visit our Privacy Policy to learn more. By continuing to use the site, you agree to this use of cookies and data.

Stündliche Wetter Tlaxcoapan

Heute, 14 Juli, Dienstag

Zeit Temperatur Niederschläge Wind Luftdruck Luftfeuchtigkeit
00:00 +13°C° 0 mm 0 m/S 594 mmHg 84%
01:00 +13°C° 0 mm 0 m/S 594 mmHg 84%
02:00 +12°C° 0 mm 0 m/S 594 mmHg 84%
03:00 +12°C° 0 mm 0 m/S 594 mmHg 84%
04:00 +12°C° 0 mm 0 m/S 593 mmHg 84%
05:00 +12°C° 0 mm 0 m/S 593 mmHg 84%
06:00 +14°C° 0 mm 0 m/S 595 mmHg 75%
07:00 +16°C° 0 mm 0 m/S 596 mmHg 66%
08:00 +19°C° 0 mm 0 m/S 597 mmHg 56%
09:00 +22°C° 0 mm 1 m/S 597 mmHg 50%
10:00 +24°C° 0 mm 1 m/S 598 mmHg 44%
11:00 +26°C° 0 mm 2 m/S 598 mmHg 37%
12:00 +26°C° 0 mm 2 m/S 598 mmHg 36%
13:00 +27°C° 0 mm 3 m/S 598 mmHg 36%
14:00 +28°C° 0 mm 4 m/S 598 mmHg 35%
15:00 +27°C° 0.2 mm 4 m/S 597 mmHg 41%
16:00 +25°C° 0.2 mm 5 m/S 597 mmHg 48%
17:00 +23°C° 0.2 mm 5 m/S 596 mmHg 55%
18:00 +21°C° 0.4 mm 4 m/S 596 mmHg 65%
19:00 +19°C° 0.4 mm 3 m/S 595 mmHg 75%
20:00 +17°C° 0.4 mm 2 m/S 595 mmHg 86%
21:00 +18°C° 0.1 mm 1 m/S 595 mmHg 88%
22:00 +16°C° 0.1 mm 1 m/S 595 mmHg 90%
23:00 +16°C° 0.1 mm 1 m/S 595 mmHg 92%

Morgen, 15 Juli, Mittwoch

Zeit Temperatur Niederschläge Wind Luftdruck Luftfeuchtigkeit
00:00 +14°C° 0 mm 0 m/S 594 mmHg 92%
01:00 +14°C° 0 mm 0 m/S 594 mmHg 93%
02:00 +13°C° 0 mm 0 m/S 594 mmHg 94%
03:00 +13°C° 0 mm 0 m/S 594 mmHg 93%
04:00 +13°C° 0 mm 0 m/S 593 mmHg 93%
05:00 +13°C° 0 mm 0 m/S 593 mmHg 93%
06:00 +15°C° 0 mm 0 m/S 595 mmHg 85%
07:00 +17°C° 0 mm 0 m/S 596 mmHg 76%
08:00 +19°C° 0 mm 0 m/S 597 mmHg 68%
09:00 +23°C° 0.1 mm 1 m/S 597 mmHg 61%
10:00 +24°C° 0.1 mm 2 m/S 598 mmHg 55%
11:00 +26°C° 0.1 mm 2 m/S 598 mmHg 48%
12:00 +26°C° 0.3 mm 3 m/S 598 mmHg 48%
13:00 +26°C° 0.3 mm 4 m/S 598 mmHg 48%
14:00 +26°C° 0.3 mm 5 m/S 597 mmHg 47%
15:00 +25°C° 0.9 mm 5 m/S 597 mmHg 53%
16:00 +23°C° 0.9 mm 5 m/S 596 mmHg 59%
17:00 +22°C° 0.9 mm 5 m/S 595 mmHg 65%
18:00 +20°C° 1 mm 4 m/S 595 mmHg 72%
19:00 +19°C° 1 mm 2 m/S 595 mmHg 80%
20:00 +18°C° 1 mm 1 m/S 595 mmHg 87%
21:00 +18°C° 0.2 mm 1 m/S 595 mmHg 89%
22:00 +16°C° 0.2 mm 1 m/S 595 mmHg 92%
23:00 +16°C° 0.2 mm 1 m/S 595 mmHg 94%

übermorgen, 16 Juli, Donnerstag

Zeit Temperatur Niederschläge Wind Luftdruck Luftfeuchtigkeit
00:00 +15°C° 0 mm 1 m/S 595 mmHg 95%
01:00 +14°C° 0 mm 0 m/S 595 mmHg 95%
02:00 +14°C° 0 mm 0 m/S 594 mmHg 96%
03:00 +14°C° 0 mm 0 m/S 594 mmHg 95%
04:00 +14°C° 0 mm 0 m/S 594 mmHg 94%
05:00 +14°C° 0 mm 0 m/S 594 mmHg 93%
06:00 +15°C° 0 mm 0 m/S 595 mmHg 87%
07:00 +16°C° 0 mm 0 m/S 596 mmHg 82%
08:00 +18°C° 0 mm 0 m/S 597 mmHg 77%
09:00 +22°C° 0.3 mm 1 m/S 597 mmHg 69%
10:00 +23°C° 0.3 mm 2 m/S 598 mmHg 62%
11:00 +25°C° 0.3 mm 2 m/S 598 mmHg 55%
12:00 +25°C° 0.4 mm 3 m/S 598 mmHg 53%
13:00 +26°C° 0.4 mm 4 m/S 598 mmHg 52%
14:00 +26°C° 0.4 mm 5 m/S 598 mmHg 51%
15:00 +24°C° 1.4 mm 6 m/S 597 mmHg 58%
16:00 +22°C° 1.4 mm 6 m/S 596 mmHg 65%
17:00 +21°C° 1.4 mm 6 m/S 596 mmHg 71%
18:00 +20°C° 1.5 mm 5 m/S 596 mmHg 77%
19:00 +18°C° 1.5 mm 3 m/S 596 mmHg 83%
20:00 +16°C° 1.5 mm 2 m/S 596 mmHg 89%
21:00 +16°C° 0.2 mm 2 m/S 596 mmHg 90%
22:00 +16°C° 0.2 mm 1 m/S 596 mmHg 91%
23:00 +15°C° 0.2 mm 1 m/S 596 mmHg 92%

17 Juli, Freitag

Zeit Temperatur Niederschläge Wind Luftdruck Luftfeuchtigkeit
00:00 +15°C° 0 mm 1 m/S 595 mmHg 93%
01:00 +13°C° 0 mm 0 m/S 595 mmHg 94%
02:00 +13°C° 0 mm 0 m/S 595 mmHg 95%
03:00 +13°C° 0 mm 0 m/S 595 mmHg 94%
04:00 +13°C° 0 mm 0 m/S 595 mmHg 94%
05:00 +13°C° 0 mm 0 m/S 595 mmHg 93%
06:00 +14°C° 0 mm 0 m/S 596 mmHg 87%
07:00 +16°C° 0 mm 0 m/S 597 mmHg 81%
08:00 +17°C° 0 mm 0 m/S 597 mmHg 75%
09:00 +20°C° 0.1 mm 1 m/S 598 mmHg 68%
10:00 +22°C° 0.1 mm 1 m/S 598 mmHg 61%
11:00 +24°C° 0.1 mm 2 m/S 598 mmHg 54%
12:00 +24°C° 0.3 mm 3 m/S 598 mmHg 51%
13:00 +25°C° 0.3 mm 4 m/S 598 mmHg 48%
14:00 +25°C° 0.3 mm 5 m/S 598 mmHg 46%
15:00 +23°C° 1 mm 5 m/S 597 mmHg 53%
16:00 +22°C° 1 mm 5 m/S 596 mmHg 60%
17:00 +20°C° 1 mm 5 m/S 595 mmHg 67%
18:00 +19°C° 0.9 mm 4 m/S 595 mmHg 72%
19:00 +18°C° 0.9 mm 3 m/S 595 mmHg 78%
20:00 +16°C° 0.9 mm 2 m/S 595 mmHg 83%
21:00 +16°C° 0.4 mm 2 m/S 595 mmHg 84%
22:00 +15°C° 0.4 mm 1 m/S 596 mmHg 85%
23:00 +15°C° 0.4 mm 1 m/S 596 mmHg 86%

18 Juli, Samstag

Zeit Temperatur Niederschläge Wind Luftdruck Luftfeuchtigkeit
00:00 +15°C° 0.2 mm 1 m/S 595 mmHg 87%
01:00 +13°C° 0.2 mm 0 m/S 595 mmHg 88%
02:00 +13°C° 0.2 mm 0 m/S 595 mmHg 88%
03:00 +13°C° 0 mm 0 m/S 594 mmHg 89%
04:00 +12°C° 0 mm 0 m/S 594 mmHg 89%
05:00 +12°C° 0 mm 0 m/S 594 mmHg 89%
06:00 +14°C° 0 mm 0 m/S 595 mmHg 80%
07:00 +16°C° 0 mm 0 m/S 596 mmHg 71%
08:00 +19°C° 0 mm 1 m/S 597 mmHg 62%
09:00 +21°C° 0 mm 1 m/S 597 mmHg 55%
10:00 +23°C° 0 mm 2 m/S 598 mmHg 47%
11:00 +24°C° 0 mm 3 m/S 598 mmHg 40%
12:00 +25°C° 0 mm 4 m/S 598 mmHg 38%
13:00 +25°C° 0 mm 5 m/S 597 mmHg 37%
14:00 +26°C° 0 mm 6 m/S 597 mmHg 36%
15:00 +24°C° 0 mm 6 m/S 596 mmHg 43%
16:00 +22°C° 0 mm 7 m/S 596 mmHg 51%
17:00 +21°C° 0 mm 7 m/S 595 mmHg 58%
18:00 +19°C° 0 mm 5 m/S 595 mmHg 66%
19:00 +17°C° 0 mm 4 m/S 595 mmHg 74%
20:00 +15°C° 0 mm 2 m/S 595 mmHg 83%
21:00 +15°C° 0 mm 1 m/S 594 mmHg 86%
22:00 +14°C° 0 mm 1 m/S 594 mmHg 89%
23:00 +13°C° 0 mm 0 m/S 594 mmHg 92%

19 Juli, Sonntag

Zeit Temperatur Niederschläge Wind Luftdruck Luftfeuchtigkeit
00:00 +12°C° 0 mm 0 m/S 594 mmHg 93%
01:00 +12°C° 0 mm 0 m/S 594 mmHg 94%
02:00 +12°C° 0 mm 0 m/S 593 mmHg 95%
03:00 +11°C° 0 mm 0 m/S 593 mmHg 95%
04:00 +11°C° 0 mm 0 m/S 593 mmHg 95%
05:00 +11°C° 0 mm 0 m/S 593 mmHg 95%
06:00 +13°C° 0 mm 0 m/S 594 mmHg 85%
07:00 +15°C° 0 mm 0 m/S 595 mmHg 74%
08:00 +17°C° 0 mm 0 m/S 596 mmHg 64%
09:00 +21°C° 0 mm 1 m/S 597 mmHg 57%
10:00 +23°C° 0 mm 1 m/S 597 mmHg 50%
11:00 +25°C° 0 mm 2 m/S 598 mmHg 44%
12:00 +25°C° 0 mm 3 m/S 598 mmHg 41%
13:00 +26°C° 0 mm 4 m/S 597 mmHg 39%
14:00 +27°C° 0 mm 5 m/S 597 mmHg 37%
15:00 +25°C° 0.3 mm 5 m/S 596 mmHg 46%
16:00 +23°C° 0.3 mm 5 m/S 596 mmHg 56%
17:00 +21°C° 0.3 mm 6 m/S 595 mmHg 65%
18:00 +20°C° 0.4 mm 4 m/S 595 mmHg 73%
19:00 +18°C° 0.4 mm 3 m/S 595 mmHg 81%
20:00 +16°C° 0.4 mm 2 m/S 594 mmHg 89%
21:00 +15°C° 0 mm 1 m/S 594 mmHg 91%
22:00 +15°C° 0 mm 1 m/S 594 mmHg 92%
23:00 +14°C° 0 mm 1 m/S 594 mmHg 93%
Mehr zeigen